TimePDT,TemperatureF,Dew PointF,Humidity,Sea Level PressureIn,VisibilityMPH,Wind Direction,Wind SpeedMPH,Gust SpeedMPH,PrecipitationIn,Events,Conditions,WindDirDegrees,DateUTC
12:15 AM,37.4,15.8,41,30.27,10.0,WNW,3.5,-,N/A,,Clear,290,2012-10-06 07:15:00
12:35 AM,35.6,15.8,44,30.27,10.0,WNW,4.6,-,N/A,,Clear,300,2012-10-06 07:35:00
12:55 AM,35.6,15.8,44,30.27,10.0,NW,3.5,-,N/A,,Clear,320,2012-10-06 07:55:00
1:15 AM,33.8,15.8,48,30.28,10.0,WNW,5.8,-,N/A,,Clear,300,2012-10-06 08:15:00
1:35 AM,33.8,15.8,48,30.28,10.0,NW,6.9,-,N/A,,Clear,310,2012-10-06 08:35:00
1:55 AM,35.6,17.6,48,30.27,10.0,NW,6.9,-,N/A,,Clear,320,2012-10-06 08:55:00
2:15 AM,33.8,17.6,52,30.28,10.0,NW,6.9,-,N/A,,Clear,320,2012-10-06 09:15:00
2:35 AM,32.0,15.8,51,30.28,10.0,WSW,4.6,-,N/A,,Clear,240,2012-10-06 09:35:00
2:55 AM,33.8,17.6,52,30.28,10.0,NNW,3.5,-,N/A,,Clear,340,2012-10-06 09:55:00
3:15 AM,28.4,12.2,51,30.28,10.0,Calm,Calm,-,N/A,,Clear,0,2012-10-06 10:15:00
3:35 AM,28.4,14.0,55,30.27,10.0,Calm,Calm,-,N/A,,Clear,0,2012-10-06 10:35:00
3:55 AM,28.4,12.2,51,30.28,10.0,Calm,Calm,-,N/A,,Clear,0,2012-10-06 10:55:00
4:15 AM,24.8,10.4,54,30.28,10.0,Calm,Calm,-,N/A,,Clear,0,2012-10-06 11:15:00
4:35 AM,26.6,12.2,55,30.28,10.0,Calm,Calm,-,N/A,,Clear,0,2012-10-06 11:35:00
4:55 AM,26.6,12.2,55,30.28,10.0,Calm,Calm,-,N/A,,Clear,0,2012-10-06 11:55:00
5:15 AM,26.6,12.2,55,30.28,10.0,Calm,Calm,-,N/A,,Clear,0,2012-10-06 12:15:00
5:35 AM,26.6,12.2,55,30.28,10.0,Calm,Calm,-,N/A,,Clear,0,2012-10-06 12:35:00
5:55 AM,24.8,10.4,54,30.28,10.0,Calm,Calm,-,N/A,,Clear,0,2012-10-06 12:55:00
6:15 AM,21.2,8.6,58,30.29,10.0,Calm,Calm,-,N/A,,Clear,0,2012-10-06 13:15:00
6:35 AM,23.0,10.4,59,30.29,10.0,Calm,Calm,-,N/A,,Clear,0,2012-10-06 13:35:00
6:55 AM,23.0,12.2,63,30.30,10.0,Calm,Calm,-,N/A,,Clear,0,2012-10-06 13:55:00
7:15 AM,24.8,12.2,59,30.30,10.0,Calm,Calm,-,N/A,,Clear,0,2012-10-06 14:15:00
7:35 AM,24.8,14.0,64,30.30,10.0,Calm,Calm,-,N/A,,Clear,0,2012-10-06 14:35:00
7:55 AM,30.2,17.6,60,30.31,10.0,Calm,Calm,-,N/A,,Clear,0,2012-10-06 14:55:00
8:15 AM,32.0,15.8,51,30.32,10.0,Calm,Calm,-,N/A,,Clear,0,2012-10-06 15:15:00
8:35 AM,33.8,17.6,52,30.32,10.0,Calm,Calm,-,N/A,,Clear,0,2012-10-06 15:35:00
8:55 AM,37.4,19.4,48,30.32,10.0,WNW,3.5,-,N/A,,Clear,300,2012-10-06 15:55:00
9:15 AM,39.2,17.6,42,30.33,10.0,Calm,Calm,-,N/A,,Clear,0,2012-10-06 16:15:00
9:35 AM,39.2,17.6,42,30.32,10.0,Calm,Calm,-,N/A,,Clear,0,2012-10-06 16:35:00
9:55 AM,39.2,17.6,42,30.33,10.0,Calm,Calm,-,N/A,,Clear,0,2012-10-06 16:55:00
10:15 AM,41.0,17.6,39,30.32,10.0,Calm,Calm,-,N/A,,Clear,0,2012-10-06 17:15:00
10:35 AM,42.8,19.4,39,30.32,10.0,NW,3.5,-,N/A,,Clear,320,2012-10-06 17:35:00
10:55 AM,44.6,19.4,37,30.32,10.0,WNW,4.6,-,N/A,,Clear,300,2012-10-06 17:55:00
11:15 AM,46.4,19.4,34,30.31,10.0,NW,3.5,-,N/A,,Clear,320,2012-10-06 18:15:00
11:35 AM,48.2,21.2,34,30.30,10.0,Calm,Calm,-,N/A,,Clear,0,2012-10-06 18:35:00
11:55 AM,48.2,19.4,32,30.30,10.0,NE,3.5,-,N/A,,Clear,40,2012-10-06 18:55:00
12:15 PM,50.0,19.4,30,30.29,10.0,Calm,Calm,-,N/A,,Clear,0,2012-10-06 19:15:00
12:35 PM,51.8,21.2,30,30.28,10.0,Calm,Calm,-,N/A,,Clear,0,2012-10-06 19:35:00
12:55 PM,53.6,21.2,28,30.27,10.0,North,5.8,-,N/A,,Clear,360,2012-10-06 19:55:00
1:15 PM,53.6,21.2,28,30.26,10.0,North,4.6,-,N/A,,Clear,360,2012-10-06 20:15:00
1:35 PM,55.4,21.2,26,30.25,10.0,North,5.8,-,N/A,,Clear,350,2012-10-06 20:35:00
1:55 PM,55.4,21.2,26,30.24,10.0,NNE,8.1,-,N/A,,Clear,20,2012-10-06 20:55:00
2:15 PM,57.2,21.2,25,30.23,10.0,WNW,4.6,-,N/A,,Clear,300,2012-10-06 21:15:00
2:35 PM,59.0,21.2,23,30.23,10.0,NNE,3.5,-,N/A,,Clear,20,2012-10-06 21:35:00
2:55 PM,57.2,21.2,25,30.22,10.0,North,-9999.0,-,N/A,,Clear,0,2012-10-06 21:55:00
3:15 PM,59.0,19.4,22,30.21,9.0,West,4.6,-,N/A,,Clear,280,2012-10-06 22:15:00
3:35 PM,60.8,19.4,20,30.21,9.0,North,6.9,-,N/A,,Clear,350,2012-10-06 22:35:00
4:15 PM,60.8,19.4,20,30.20,10.0,Calm,Calm,-,N/A,,Clear,0,2012-10-06 23:15:00
4:35 PM,62.6,21.2,20,30.19,10.0,Calm,Calm,-,N/A,,Clear,0,2012-10-06 23:35:00
4:55 PM,62.6,19.4,19,30.19,10.0,SW,4.6,-,N/A,,Clear,220,2012-10-06 23:55:00
5:15 PM,62.6,19.4,19,30.18,10.0,SW,5.8,-,N/A,,Clear,220,2012-10-07 00:15:00
5:35 PM,60.8,17.6,19,30.17,10.0,SSW,5.8,-,N/A,,Clear,200,2012-10-07 00:35:00
5:55 PM,55.4,15.8,21,30.17,10.0,South,5.8,-,N/A,,Clear,190,2012-10-07 00:55:00
6:15 PM,51.8,12.2,21,30.17,10.0,South,4.6,-,N/A,,Clear,190,2012-10-07 01:15:00
6:35 PM,51.8,14.0,22,30.17,10.0,South,4.6,-,N/A,,Clear,180,2012-10-07 01:35:00
6:55 PM,46.4,12.2,25,30.17,7.0,NW,6.9,-,N/A,,Clear,310,2012-10-07 01:55:00
7:15 PM,51.8,17.6,26,30.17,5.0,North,-9999.0,-,N/A,,Clear,0,2012-10-07 02:15:00
7:35 PM,46.4,14.0,27,30.17,10.0,WNW,6.9,-,N/A,,Clear,300,2012-10-07 02:35:00
7:55 PM,46.4,14.0,27,30.18,10.0,Calm,Calm,-,N/A,,Clear,0,2012-10-07 02:55:00
8:15 PM,44.6,14.0,29,30.18,10.0,Calm,Calm,-,N/A,,Clear,0,2012-10-07 03:15:00
8:35 PM,44.6,14.0,29,30.17,1.0,NW,4.6,-,N/A,,Clear,310,2012-10-07 03:35:00
8:55 PM,42.8,10.4,27,30.18,4.0,Calm,Calm,-,N/A,,Clear,0,2012-10-07 03:55:00
9:15 PM,39.2,10.4,31,30.18,1.8,SE,4.6,-,N/A,,Clear,140,2012-10-07 04:15:00
9:35 PM,39.2,12.2,33,30.18,8.0,South,4.6,-,N/A,,Clear,190,2012-10-07 04:35:00
9:55 PM,39.2,15.8,39,30.18,1.2,SSE,3.5,-,N/A,,Clear,150,2012-10-07 04:55:00
10:15 PM,37.4,15.8,41,30.18,1.8,Calm,Calm,-,N/A,,Clear,0,2012-10-07 05:15:00
10:35 PM,37.4,14.0,38,30.18,10.0,Calm,Calm,-,N/A,,Clear,0,2012-10-07 05:35:00
10:55 PM,39.2,15.8,39,30.18,9.0,Calm,Calm,-,N/A,,Clear,0,2012-10-07 05:55:00
11:15 PM,37.4,12.2,36,30.18,10.0,SW,3.5,-,N/A,,Clear,230,2012-10-07 06:15:00
11:35 PM,35.6,10.4,35,30.18,10.0,South,4.6,-,N/A,,Clear,190,2012-10-07 06:35:00
11:55 PM,35.6,12.2,38,30.18,10.0,West,4.6,-,N/A,,Clear,280,2012-10-07 06:55:00